Weather in Kakhovka

Russia / Amur Oblast     50°47′29″N   129°13′09″E
temp.,
°C
wind,
m/s
gust,
m/s
humid.,
%
clouds,
%
prec.,
mm/h
press.,
hPa
HPBL,
m
16 may, sun
sun1600:00+9w7148067 0.1 998813
03:00+7w513835 0.1 1000390
06:00+7wnw411805 0.0 1000404
09:00+11w57630 0.0 1001701
12:00+16wnw69420 0.0 10001612
15:00+18wnw58310 0.0 9992384
18:00+18nnw24390 0.0 999281
21:00+13sse33475 0.0 99936
17 may, mon
mon1700:00+10s49604 0.0 999131
03:00+9sw410630 0.0 998172
06:00+10wsw39635 0.0 998197
09:00+15wnw58525 0.0 999829
12:00+18nw58395 0.0 9991917
15:00+19nw593333 0.0 9992570
18:00+17n463966 0.0 999539
21:00+13ne374297 0.0 1000132
18 may, tue
tue1800:00+12ne51141100 0.0 998426
03:00+7nne10147987 0.2 998774
06:00+5ne7149099 1.8 998472
09:00+9n227373 1.8 997433
12:00+12w566442 0.0 9981066
15:00+12w6958100 0.0 9991587
18:00+11nw59670 0.2 1001799
21:00+8nnw12694 0.2 100413
19 may, wed
wed1900:00+6nw35725 0.0 100591
03:00+5nnw227198 0.0 100617
06:00+6ne126867 0.0 100667
09:00+11ese124558 0.0 1006822
12:00+15w484112 0.0 10051852
15:00+16nw57327 0.0 10052329
18:00+16ne223589 0.0 1005961
21:00+12e484867 0.0 1005161
20 may, thu
thu2000:00+11se71744100 0.0 1002469
03:00+12sse71751100 0.0 999490
06:00+12s61683100 0.8 998553
09:00+17sw6969100 0.9 999926
12:00+19wnw665189 0.0 10001383
15:00+18nw5647100 0.0 10021380
18:00+16n6755100 0.0 10041071
21:00+10nne61065100 0.0 1008508